This is the latest recevied weather packets stored in our database for station/object KG4ZVW. If no packets are shown the sender has not sent any weather packets the latest 10 day(s).
| Time | Temp. | Humidity | Pressure | Rain* | Wind** | Luminosity | Snow |
|---|---|---|---|---|---|---|---|
| 1778093002 | 30° C | 56% | 1016 hPa | 0 mm | - | 868 W/m² | - |
| 1778092718 | 30° C | 55% | 1016.1 hPa | 0 mm | - | 900 W/m² | - |
| 1778092413 | 30° C | 53% | 1016.1 hPa | 0 mm | - | 772 W/m² | - |
| 1778092112 | 30° C | 54% | 1016.1 hPa | 0 mm | - | 761 W/m² | - |
| 1778091811 | 30° C | 53% | 1016.1 hPa | 0 mm | - | 888 W/m² | - |
| 1778091506 | 30.56° C | 53% | 1016.1 hPa | 0 mm | - | 772 W/m² | - |
| 1778091202 | 30.56° C | 54% | 1016.1 hPa | 0 mm | - | 828 W/m² | - |
| 1778090912 | 30° C | 56% | 1016.2 hPa | 0 mm | - | 914 W/m² | - |
| 1778090605 | 30° C | 57% | 1016.2 hPa | 0 mm | - | 900 W/m² | - |
| 1778090300 | 30° C | 53% | 1016.2 hPa | 0 mm | - | 932 W/m² | - |
| 1778089998 | 30° C | 54% | 1016.5 hPa | 0 mm | - | 896 W/m² | - |
| 1778089717 | 30° C | 53% | 1016.5 hPa | 0 mm | - | 921 W/m² | - |
| 1778089413 | 30° C | 54% | 1016.5 hPa | 0 mm | - | 877 W/m² | - |
| 1778089105 | 30° C | 54% | 1016.6 hPa | 0 mm | - | 956 W/m² | - |
| 1778088802 | 30° C | 56% | 1016.6 hPa | 0 mm | - | 944 W/m² | - |
| 1778088517 | 30° C | 60% | 1016.6 hPa | 0 mm | - | 954 W/m² | - |
| 1778088213 | 30° C | 59% | 1016.6 hPa | 0 mm | - | 918 W/m² | - |
| 1778087909 | 30° C | 59% | 1016.6 hPa | 0 mm | - | 872 W/m² | - |
| 1778087605 | 30° C | 58% | 1016.6 hPa | 0 mm | - | 905 W/m² | - |
| 1778087299 | 30° C | 57% | 1016.7 hPa | 0 mm | - | 960 W/m² | - |
| 1778087000 | 30.56° C | 58% | 1016.7 hPa | 0 mm | - | 909 W/m² | - |
| 1778086698 | 30.56° C | 58% | 1016.7 hPa | 0 mm | - | 870 W/m² | - |
| 1778086416 | 30.56° C | 60% | 1016.8 hPa | 0 mm | - | 916 W/m² | - |
| 1778086111 | 30° C | 60% | 1016.8 hPa | 0 mm | - | 902 W/m² | - |
| 1778085810 | 30° C | 61% | 1016.8 hPa | 0 mm | - | 942 W/m² | - |
* Rain latest hour (hover to see other rain measurements)
** Current wind speed in m/s (hover to see current wind gust speed)